"Pseudo-MPEC" for C0GQ7R5

Created 2023 Mar 22 14:22:05 UT using Find_Orb

Click here for an explanation of pseudo-MPECs

 
 Astrometry: 
     C0GQ7R5* C2023 03 17DRZ:A3,TiJtMb6BrY+^AstrometryH`l0O1#fRkPCZk?;X%oGOjNV00
     C0GQ7R5  C2023 03 17kpd9Haorku1X@2cF.];f1glU;752!Oh$j^sredacted;Oyl;22MOV00
     C0GQ7R5  C2023 03 17*M]AiI^T6*click/QAD=CM_GCtZMMLh_9o4CBKeethereI?0SNtMV00
     C0GQ7R5  C2023 03 173qsrplyC@%1YHb#s'hHP.X]\forN1/explanationb]d5U(+[OvaV00

Station data:
(V00) Kitt Peak-Bok  (N31.963125 W111.600190)  US/Arizona.  Observers T. A.
   Pruyne, B. M. Africano, E. J. Christensen, G. A. Farneth, D. C. Fuls, A.
   R. Gibbs, A. D. Grauer, H. Gröller, J. A. Johnson, R. A. Kowalski, S. M.
   Larson, G. J. Leonard, D. Rankin, R. L. Seaman, F. C. Shelly, K. W.
   Wierzchoś. 2.25-m reflector + CCD.

Orbital elements:  C0GQ7R5
   Perihelion 2023 Mar 16.45049 +/- 36.3 TT = 10:48:42 (JD 2460019.95049)
Epoch 2023 Mar 17.0 TT = JDT 2460020.5   Earth MOID: 0.0061      AutoNEOCP
M   0.49606727 +/- 17               (J2000 ecliptic)
n   0.90274090 +/- 0.384            Peri.  119.54650 +/- 110
a   1.06029643 +/- 0.301            Node    55.69981 +/- 70
e   0.0542370 +/- 0.249             Incl.    0.22294 +/- 4.5
P   1.09/398.78d           H 31.76  G  0.15   U 12.1  SR
q 1.00278907 +/- 0.16    Q 1.11780380 +/- 43.7
From 4 observations 2023 Mar. 17 (21.5 min); mean residual 0".15
Residuals in arcseconds: 
230317 V00  .13-  .13+    230317 V00  .01+  .27-    
230317 V00  .18+  .06-    230317 V00  .07-  .20+    

Ephemerides (geocentric):
Date (UTC) HH   RA             Dec           delta  r     elong  mag " sig PA
---- --------  ------------   ------------  ------ ------ -----  --- --------
2023 03 22 14  13 19 47.918   +18 34 11.69  .00731 1.0029 153.5 22.3  54d  14
2023 03 22 15  13 20 18.881   +18 31 22.02  .00730 1.0029 153.4 22.3  54d  14
2023 03 22 16  13 20 49.898   +18 28 31.48  .00729 1.0029 153.4 22.3  54d  14
2023 03 22 17  13 21 20.969   +18 25 40.08  .00728 1.0029 153.4 22.3  54d  14
2023 03 22 18  13 21 52.093   +18 22 47.80  .00728 1.0029 153.3 22.3  54d  14
2023 03 22 19  13 22 23.272   +18 19 54.66  .00727 1.0029 153.3 22.3  54d  14
2023 03 22 20  13 22 54.504   +18 17 00.64  .00726 1.0029 153.2 22.3  54d  14
2023 03 22 21  13 23 25.791   +18 14 05.74  .00725 1.0029 153.2 22.3  54d  14
2023 03 22 22  13 23 57.131   +18 11 09.96  .00724 1.0029 153.2 22.3  54d  14
2023 03 22 23  13 24 28.526   +18 08 13.31  .00723 1.0029 153.1 22.3  54d  14
2023 03 23 00  13 24 59.974   +18 05 15.76  .00722 1.0029 153.1 22.3  55d  14
2023 03 23 01  13 25 31.477   +18 02 17.33  .00721 1.0029 153.0 22.3  55d  14
2023 03 23 02  13 26 03.034   +17 59 18.02  .00720 1.0029 153.0 22.3  55d  14
2023 03 23 03  13 26 34.645   +17 56 17.81  .00719 1.0029 152.9 22.3  55d  14
2023 03 23 04  13 27 06.311   +17 53 16.71  .00718 1.0029 152.9 22.3  55d  14
2023 03 23 05  13 27 38.030   +17 50 14.71  .00718 1.0029 152.8 22.3  55d  14
2023 03 23 06  13 28 09.804   +17 47 11.82  .00717 1.0029 152.8 22.3  55d  14
2023 03 23 07  13 28 41.632   +17 44 08.02  .00716 1.0029 152.7 22.3  55d  14
2023 03 23 08  13 29 13.514   +17 41 03.32  .00715 1.0029 152.7 22.3  55d  16
2023 03 23 09  13 29 45.451   +17 37 57.72  .00714 1.0029 152.7 22.3  55d  16
2023 03 23 10  13 30 17.442   +17 34 51.21  .00713 1.0029 152.6 22.3  55d  16
2023 03 23 11  13 30 49.488   +17 31 43.79  .00712 1.0029 152.6 22.3  56d  16
2023 03 23 12  13 31 21.587   +17 28 35.46  .00711 1.0029 152.5 22.3  56d  16
2023 03 23 13  13 31 53.742   +17 25 26.22  .00710 1.0029 152.5 22.3  56d  17
2023 03 23 14  13 32 25.950   +17 22 16.06  .00710 1.0029 152.4 22.3  56d  17
2023 03 23 15  13 32 58.214   +17 19 04.99  .00709 1.0029 152.4 22.3  56d  17
2023 03 23 16  13 33 30.531   +17 15 52.99  .00708 1.0029 152.3 22.3  56d  17
2023 03 23 17  13 34 02.904   +17 12 40.07  .00707 1.0029 152.3 22.3  56d  17
2023 03 23 18  13 34 35.330   +17 09 26.23  .00706 1.0029 152.2 22.3  56d  17
2023 03 23 19  13 35 07.812   +17 06 11.46  .00705 1.0029 152.2 22.3  57d  17
2023 03 23 20  13 35 40.347   +17 02 55.76  .00704 1.0029 152.1 22.3  57d  17
2023 03 23 21  13 36 12.938   +16 59 39.14  .00703 1.0029 152.1 22.3  57d  17
2023 03 23 22  13 36 45.583   +16 56 21.58  .00703 1.0029 152.0 22.3  57d  17
2023 03 23 23  13 37 18.283   +16 53 03.08  .00702 1.0029 152.0 22.3  57d  17
2023 03 24 00  13 37 51.037   +16 49 43.65  .00701 1.0029 151.9 22.3  57d  17
2023 03 24 01  13 38 23.846   +16 46 23.28  .00700 1.0029 151.9 22.3  57d  17
2023 03 24 02  13 38 56.710   +16 43 01.98  .00699 1.0029 151.8 22.3  58d  17
2023 03 24 03  13 39 29.628   +16 39 39.73  .00698 1.0029 151.8 22.3  58d  17
2023 03 24 04  13 40 02.601   +16 36 16.53  .00697 1.0029 151.7 22.3  58d  17
2023 03 24 05  13 40 35.629   +16 32 52.39  .00697 1.0029 151.7 22.3  58d  17
2023 03 24 06  13 41 08.712   +16 29 27.31  .00696 1.0029 151.6 22.3  58d  17
2023 03 24 07  13 41 41.849   +16 26 01.27  .00695 1.0029 151.5 22.3  58d  17
2023 03 24 08  13 42 15.041   +16 22 34.28  .00694 1.0029 151.5 22.3  59d  17
2023 03 24 09  13 42 48.288   +16 19 06.34  .00693 1.0029 151.4 22.3  59d  17
2023 03 24 10  13 43 21.590   +16 15 37.44  .00692 1.0029 151.4 22.3  59d  17
2023 03 24 11  13 43 54.946   +16 12 07.59  .00692 1.0029 151.3 22.3  59d  17
2023 03 24 12  13 44 28.357   +16 08 36.78  .00691 1.0029 151.3 22.3  59d  17
2023 03 24 13  13 45 01.823   +16 05 05.01  .00690 1.0029 151.2 22.3  59d  17